Location: Dampvalley
(47.9094°N, 6.1967°E)
Time: 21:41:30
(UTC+00:00)

ATLAS 2AS CENTAUR R/B - Pass Details

Date: 05 March 2021
Orbit: 949 x 1263 km, 63.7° (Epoch: 20 April)

Event Time Altitude Azimuth Distance (km) Brightness Sun altitude
Rises 05:34:47 0° 209° (SSW) 4,183 5.5 -6.4°
Reaches altitude 10° 05:37:34 10° 207° (SSW) 3,233 5.0 -5.9°
Maximum altitude 05:45:24 73° 125° (SE) 1,314 3.4 -4.6°
Drops below altitude 10° 05:53:10 10° 43° (NE) 3,200 5.8 -3.3°
Sets 05:55:54 0° 41° (NE) 4,139 6.3 -2.9°
